Find Starlink 31195

NORAD ID: 58796 Int'l Des: 2024-012 Owner: SPXS Country: US Constellation: starlink operational
LEOCIRCULAR

Live-Position

3D-Globus wird geladen...

Über Starlink 31195

Beschreibung wird geladen...

Nächste Überflüge

Passes for default location (London). Set your location on the main map for personalized predictions.

Höhenverlauf

Loading altitude history...

Zweizeiliger Elementsatz

1 58796U 24012K 26121.27771175 .00000536 00000-0 28992-4 0 9991
2 58796 43.0031 228.6917 0000725 281.7169 78.3601 15.27577220129275
Epoch: 1. Mai 2026 • Age: 7 hours

Aktueller Status

Höhe 484.6 km
Geschwindigkeit 7.63 km/s
Subsatellitenpunkt 33.20°N, 59.08°W
Startdatum 15. Jan. 2024
Alter 2.2 years
Typ internet

Technische Details

Klassifizierung Payload
Masse 730.00 kg
Trockenmasse 700.00 kg
Gesamtmasse 730.00 kg
Länge 0.30 m
Durchmesser 4.10 m
Spannweite 29.00 m
Form Box + pan
Hersteller SPXS
Bus-Typ Starlink V2M
Phasenstatus In Orbit
Besitzer/Staat SPXS/US

Most Searched